This demonstration page uses our WeatherBlox Daily Observations layout. Learn more.

Left ArrowRight Arrow

39.95238, -75.16362

Hourly Observations for August 6, 2022

Temp ( °F °C ) Dew Point ( °F °C ) Humidity (%) Winds ( mph kmh ) Pressure ( in mb ) Visibility ( mi km ) Precip ( " mm )
12:54 am 00:54 Mostly Cloudy 80 26.7 71 21.7 74 74 N 3 6 30.18 1022 10 16 0.00 0.00
1:54 am 01:54 Mostly Cloudy 79 26.1 70 21.1 74 74 WSW 7 11 30.18 1022 10 16 0.00 0.00
2:54 am 02:54 Mostly Cloudy 78 25.6 71 21.7 79 79 S 5 7 30.18 1022 10 16 0.00 0.00
3:54 am 03:54 Mostly Cloudy 76 24.4 72 22.2 88 88 S 3 6 30.19 1022 10 16 0.00 0.00
4:54 am 04:54 Partly Cloudy 76 24.4 72 22.2 88 88 SSW 3 6 30.19 1023 10 16 0.00 0.00
5:54 am 05:54 Partly Cloudy 75 23.9 71 21.7 88 88 S 6 9 30.21 1023 10 16 0.00 0.00
6:54 am 06:54 Mostly Cloudy 76 24.4 72 22.2 88 88 S 9 15 30.22 1023 10 16 0.00 0.00
7:54 am 07:54 Mostly Cloudy 78 25.6 72 22.2 82 82 S 8 13 30.23 1024 10 16 0.00 0.00
8:54 am 08:54 Mostly Cloudy 80 26.7 71 21.7 74 74 SW 9 15 30.24 1024 10 16 0.00 0.00
9:47 am 09:47 Mostly Cloudy 81 27.2 71 21.7 72 72 SW 9 15 30.25 1024 10 16 0.00 0.00
9:54 am 09:54 Cloudy 82 27.8 72 22.2 72 72 WSW 13 20 30.25 1024 10 16 0.00 0.00
10:25 am 10:25 Mostly Cloudy 82 27.8 71 21.7 69 69 SSW 10 17 30.25 1024 10 16 0.00 0.00
10:54 am 10:54 Mostly Cloudy 83 28.3 71 21.7 67 67 S 9 15 30.24 1024 10 16 0.00 0.00
11:54 am 11:54 Mostly Cloudy 85 29.4 71 21.7 63 63 SSW 13 20 30.24 1024 10 16 0.00 0.00
12:54 pm 12:54 Mostly Cloudy 85 29.4 71 21.7 63 63 SSW 10 17 30.23 1024 10 16 0.00 0.00
1:54 pm 13:54 Mostly Cloudy 87 30.6 71 21.7 59 59 SW 12 19 30.22 1024 10 16 0.00 0.00
2:54 pm 14:54 Mostly Cloudy 88 31.1 73 22.8 61 61 S 13 20 30.22 1023 10 16 0.00 0.00
3:54 pm 15:54 Mostly Cloudy 88 31.1 73 22.8 61 61 SSW 6 9 30.18 1022 10 16 0.00 0.00
4:54 pm 16:54 Mostly Cloudy 90 32.2 71 21.7 54 54 SW 14 22 30.17 1022 10 16 0.00 0.00
5:54 pm 17:54 Mostly Cloudy 91 32.8 71 21.7 52 52 SW 12 19 30.15 1021 10 16 0.00 0.00
6:54 pm 18:54 Mostly Sunny 89 31.7 73 22.8 59 59 SSW 13 20 30.16 1021 10 16 0.00 0.00
7:54 pm 19:54 Mostly Cloudy 87 30.6 73 22.8 63 63 SSW 10 17 30.17 1022 10 16 0.00 0.00
8:54 pm 20:54 Mostly Cloudy 86 30 73 22.8 65 65 SSW 13 20 30.18 1022 10 16 0.00 0.00
9:54 pm 21:54 Mostly Cloudy 84 28.9 75 23.9 74 74 S 7 11 30.21 1023 10 16 0.00 0.00
10:54 pm 22:54 Mostly Cloudy 83 28.3 75 23.9 77 77 SSW 8 13 30.21 1023 10 16 0.00 0.00
11:54 pm 23:54 Cloudy 83 28.3 75 23.9 77 77 S 9 15 30.22 1023 10 16 0.00 0.00

Powered by AerisWeather